Puyallup, WA

11:06 AM PDT on March 29, 2017 (GMT -0700)
Pierce County - Thun Field

Weather History for KPLU - January, 2013

Change the Weather History Date:

Friday, January 18, 2013

  Actual Average (KTCM) Record (KTCM)
Temperature  
Mean Temperature 32 °F -  
Max Temperature 42 °F 45 °F 62 °F (2005)
Min Temperature 21 °F 33 °F 16 °F (1993)
Degree Days  
Heating Degree Days 34    
Moisture  
Dew Point 29 °F    
Average Humidity 96    
Maximum Humidity 100    
Minimum Humidity 75    
Precipitation  
Precipitation 0.00 in - - ()
Sea Level Pressure  
Sea Level Pressure 30.28 in    
Wind  
Wind Speed 0 mph (NNW)    
Max Wind Speed 5 mph    
Max Gust Speed -    
Visibility 4 miles    
Events Fog , Rain    
Averages and records for this station are not official NWS values.
T = Trace of Precipitation, MM = Missing Value Source: NWS Daily Summary

Daily Weather History Graph

Daily Weather History Graph

Search for Another Location

Airport or City:

Trip Planner

Search our weather history database for the weather conditions in past years. The results will help you decide how hot, cold, wet, or windy it might be!

Date:

Astronomy

Jan. 18, 2013 Rise Set
Actual Time 7:48 AM PST 4:51 PM PST
Civil Twilight 7:14 AM PST 5:25 PM PST
Nautical Twilight 6:36 AM PST 6:03 PM PST
Astronomical Twilight 6:00 AM PST 6:39 PM PST
Moon 10:56 AM PST (1/18) 12:18 AM PST (1/18)
Length of Visible Light 10h 11m
Length of Day
9h 03m
Waxing Crescent, 48% of the Moon is Illuminated
Jan 18
Waxing Crescent
Jan 18
First Quarter
Jan 26
Full
Feb 3
Last Quarter
Feb 9
New

Hourly Weather History & Observations

Time (PST) Temp. Windchill Dew Point Humidity Pressure Visibility Wind Dir Wind Speed Gust Speed Precip Events Conditions
12:15 AM 26.6 °F - 26.6 °F 100% 30.29 in 0.2 mi Calm Calm - N/A Fog Light Freezing Fog
12:35 AM 26.6 °F - 26.6 °F 100% 30.29 in 0.2 mi Calm Calm - N/A Fog Light Freezing Fog
12:55 AM 26.6 °F - 26.6 °F 100% 30.29 in 0.2 mi Calm Calm - N/A Fog Light Freezing Fog
1:15 AM 26.6 °F - 26.6 °F 100% 30.28 in 1.0 mi Calm Calm - N/A   Overcast
1:35 AM 26.6 °F - 26.6 °F 100% 30.28 in 0.5 mi Calm Calm - N/A Fog Light Freezing Fog
1:55 AM 24.8 °F - 24.8 °F 100% 30.28 in 0.2 mi Calm Calm - N/A Fog Light Freezing Fog
2:15 AM 24.8 °F - 24.8 °F 100% 30.28 in 2.0 mi Calm Calm - N/A   Clear
2:35 AM 24.8 °F - 24.8 °F 100% 30.28 in 5.0 mi Calm Calm - N/A   Mostly Cloudy
2:55 AM 24.8 °F - 24.8 °F 100% 30.27 in 3.0 mi Calm Calm - N/A   Mostly Cloudy
3:15 AM 24.8 °F - 24.8 °F 100% 30.27 in 5.0 mi Calm Calm - N/A   Clear
3:35 AM 24.8 °F - 24.8 °F 100% 30.26 in 5.0 mi Calm Calm - N/A   Clear
3:55 AM 24.8 °F - 24.8 °F 100% 30.26 in 6.0 mi Calm Calm - N/A   Mostly Cloudy
4:15 AM 23.0 °F - 23.0 °F 100% 30.26 in 6.0 mi Calm Calm - N/A   Overcast
4:35 AM 24.8 °F - 24.8 °F 100% 30.25 in 7.0 mi Calm Calm - N/A   Overcast
4:55 AM 23.0 °F - 23.0 °F 100% 30.26 in 6.0 mi Calm Calm - N/A   Mostly Cloudy
5:15 AM 24.8 °F - 24.8 °F 100% 30.25 in 7.0 mi Calm Calm - N/A   Mostly Cloudy
5:35 AM 23.0 °F - 23.0 °F 100% 30.25 in 6.0 mi Calm Calm - N/A   Partly Cloudy
5:55 AM 21.2 °F - 21.2 °F 100% 30.25 in 6.0 mi Calm Calm - N/A   Clear
6:15 AM 21.2 °F - 19.4 °F 93% 30.25 in 7.0 mi Calm Calm - N/A   Clear
6:35 AM 23.0 °F - 21.2 °F 93% 30.26 in 7.0 mi Calm Calm - N/A   Clear
6:55 AM 23.0 °F - 23.0 °F 100% 30.26 in 7.0 mi Calm Calm - N/A   Partly Cloudy
7:15 AM 23.0 °F - 23.0 °F 100% 30.26 in 7.0 mi Calm Calm - N/A   Partly Cloudy
7:35 AM 23.0 °F - 23.0 °F 100% 30.26 in 8.0 mi Calm Calm - N/A   Scattered Clouds
7:55 AM 23.0 °F - 23.0 °F 100% 30.27 in 7.0 mi Calm Calm - N/A   Partly Cloudy
8:15 AM 24.8 °F - 24.8 °F 100% 30.27 in 6.0 mi Calm Calm - N/A   Clear
8:35 AM 24.8 °F - 24.8 °F 100% 30.27 in 7.0 mi Calm Calm - N/A   Clear
8:55 AM 26.6 °F - 26.6 °F 100% 30.27 in 7.0 mi Calm Calm - N/A   Clear
9:15 AM 28.4 °F - 28.4 °F 100% 30.28 in 7.0 mi Calm Calm - N/A   Clear
9:35 AM 30.2 °F - 30.2 °F 100% 30.28 in 5.0 mi Calm Calm - N/A   Clear
9:55 AM 32.0 °F - 32.0 °F 100% 30.29 in 5.0 mi Calm Calm - N/A   Clear
10:15 AM 33.8 °F - 33.8 °F 100% 30.30 in 8.0 mi Calm Calm - N/A Rain Light Rain
10:35 AM 35.6 °F - 35.6 °F 100% 30.30 in 10.0 mi Calm Calm - N/A   Clear
10:55 AM 35.6 °F - 35.6 °F 100% 30.30 in 10.0 mi Calm Calm - N/A   Clear
11:15 AM 37.4 °F - 35.6 °F 93% 30.29 in 10.0 mi Calm Calm - N/A   Clear
11:35 AM 37.4 °F - 35.6 °F 93% 30.29 in 10.0 mi Calm Calm - N/A   Clear
11:55 AM 37.4 °F - 33.8 °F 87% 30.29 in 10.0 mi Calm Calm - N/A   Clear
12:15 PM 39.2 °F - 35.6 °F 87% 30.28 in 10.0 mi Calm Calm - N/A   Clear
12:35 PM 41.0 °F - 33.8 °F 76% 30.27 in 10.0 mi Calm Calm - N/A   Clear
12:55 PM 42.8 °F 41.1 °F 35.6 °F 76% 30.27 in 10.0 mi NNW 3.5 mph - N/A   Clear
1:15 PM 41.0 °F 39.0 °F 35.6 °F 81% 30.27 in 10.0 mi North 3.5 mph - N/A   Clear
1:35 PM 41.0 °F 38.0 °F 33.8 °F 76% 30.27 in 10.0 mi NNW 4.6 mph - N/A   Clear
1:55 PM 41.0 °F 38.0 °F 35.6 °F 81% 30.27 in 8.0 mi NNW 4.6 mph - N/A   Clear
2:15 PM 39.2 °F - 33.8 °F 81% 30.27 in 8.0 mi Calm Calm - N/A   Clear
2:35 PM 39.2 °F 37.0 °F 32.0 °F 75% 30.27 in 8.0 mi North 3.5 mph - N/A   Clear
2:55 PM 37.4 °F 33.8 °F 32.0 °F 81% 30.28 in 8.0 mi North 4.6 mph - N/A   Clear
3:15 PM 35.6 °F - 32.0 °F 87% 30.28 in 5.0 mi Calm Calm - N/A   Clear
3:35 PM 35.6 °F - 32.0 °F 87% 30.29 in 4.0 mi Calm Calm - N/A   Clear
3:55 PM 33.8 °F - 32.0 °F 93% 30.29 in 3.0 mi Calm Calm - N/A   Mostly Cloudy
4:15 PM 32.0 °F - 32.0 °F 100% 30.30 in 0.5 mi Calm Calm - N/A Fog Fog
4:35 PM 32.0 °F - 32.0 °F 100% 30.29 in 0.2 mi Calm Calm - N/A Fog Fog
4:55 PM 32.0 °F - 32.0 °F 100% 30.29 in 0.2 mi Calm Calm - N/A Fog Fog
5:15 PM 32.0 °F - 32.0 °F 100% 30.29 in 0.2 mi Calm Calm - N/A Fog Fog
5:35 PM 32.0 °F - 32.0 °F 100% 30.29 in 0.2 mi Calm Calm - N/A Fog Fog
5:55 PM 32.0 °F - 32.0 °F 100% 30.30 in 0.2 mi Calm Calm - N/A Fog Fog
6:15 PM 32.0 °F - 32.0 °F 100% 30.30 in 0.2 mi Calm Calm - N/A Fog Fog
6:35 PM 32.0 °F - 32.0 °F 100% 30.30 in 0.2 mi Calm Calm - N/A Fog Fog
6:55 PM 32.0 °F - 32.0 °F 100% 30.30 in 0.2 mi Calm Calm - N/A Fog Fog
7:15 PM 32.0 °F - 32.0 °F 100% 30.30 in 0.2 mi Calm Calm - N/A Fog Fog
7:55 PM 32.0 °F - 32.0 °F 100% 30.30 in 0.2 mi Calm Calm - N/A Fog Fog
8:35 PM 32.0 °F - 32.0 °F 100% 30.31 in 0.2 mi Calm Calm - N/A Fog Fog
8:55 PM 32.0 °F - 32.0 °F 100% 30.32 in 0.2 mi Calm Calm - N/A Fog Fog
9:15 PM 32.0 °F - 32.0 °F 100% 30.32 in 0.2 mi Calm Calm - N/A Fog Fog
9:35 PM 32.0 °F - 32.0 °F 100% 30.32 in 0.2 mi Calm Calm - N/A Fog Light Freezing Fog
9:55 PM 32.0 °F - 32.0 °F 100% 30.32 in 0.2 mi Calm Calm - N/A Fog Light Freezing Fog
10:15 PM 32.0 °F - 32.0 °F 100% 30.32 in 0.2 mi Calm Calm - N/A Fog Light Freezing Fog
10:55 PM 32.0 °F - 32.0 °F 100% 30.32 in 0.2 mi Calm Calm - N/A Fog Light Freezing Fog
11:15 PM 32.0 °F - 32.0 °F 100% 30.33 in 0.2 mi Calm Calm - N/A Fog Light Freezing Fog
11:35 PM 32.0 °F - 32.0 °F 100% 30.33 in 0.2 mi Calm Calm - N/A Fog Light Freezing Fog
11:55 PM 32.0 °F - 32.0 °F 100% 30.33 in 0.2 mi Calm Calm - N/A Fog Light Freezing Fog